DL1WER-13 Weather Reports


time (UTC)temp
C
wind
direction
speed
KPH
gust
KPH
rain 1hr
cm
rain 24hr
cm
rain mn
cm
humidity
%
barometer
mb
20260507131024 14 163 4.8 12.9 0.03 0.28 0.15 72 1040.4
20260507130023 13 205 4.8 9.7 0.03 0.28 0.15 74 1040.4
20260507125023 13 158 3.2 6.4 0.03 0.28 0.15 79 1040.1
20260507124024 12 267 1.6 6.4 0.05 0.28 0.15 83 1040.3
20260507123024 11 309 3.2 6.4 0.05 0.28 0.15 88 1040.4
20260507122024 11 282 3.2 6.4 0.10 0.28 0.15 89 1040.6
20260507121023 11 307 1.6 3.2 0.13 0.23 0.13 90 1040.2
20260507120023 11 316 3.2 6.4 0.13 0.23 0.13 90 1040.4
20260507115023 11 291 3.2 6.4 0.13 0.23 0.13 90 1040.6
20260507114023 10 182 4.8 8.0 0.10 0.20 0.10 89 1040.5
20260507113024 11 277 3.2 9.7 0.10 0.20 0.10 88 1040.8
20260507112023 11 283 4.8 9.7 0.05 0.18 0.05 84 1040.6
20260507111023 11 255 6.4 12.9 0.00 0.13 0.00 78 1040.5
20260507110024 12 168 6.4 12.9 0.00 0.13 0.00 73 1040.5
20260507105023 12 187 6.4 11.3 0.00 0.13 0.00 70 1040.6
20260507104023 12 323 3.2 6.4 0.00 0.13 0.00 73 1040.5
20260507103023 12 315 3.2 11.3 0.00 0.13 0.00 78 1040.4
20260507102023 12 307 4.8 11.3 0.00 0.13 0.00 78 1040.4
20260507101023 12 151 1.6 4.8 0.00 0.13 0.00 83 1040.4
20260507100023 11 249 3.2 6.4 0.00 0.13 0.00 84 1040.2
20260507095023 11 201 3.2 6.4 0.00 0.13 0.00 83 1040.5
20260507094023 11 240 3.2 8.0 0.00 0.13 0.00 83 1040.4
20260507093024 11 309 4.8 12.9 0.00 0.13 0.00 82 1040.4
20260507092023 11 214 4.8 12.9 0.00 0.13 0.00 83 1040.0
20260507091023 11 319 6.4 12.9 0.00 0.13 0.00 82 1040.1
20260507090024 11 299 4.8 14.5 0.00 0.13 0.00 83 1040.0
20260507085023 11 282 3.2 9.7 0.00 0.13 0.00 86 1040.0
20260507084023 11 291 4.8 14.5 0.00 0.13 0.00 86 1039.9
20260507082023 10 212 4.8 11.3 0.00 0.13 0.00 86 1039.9
20260507081023 10 144 4.8 8.0 0.00 0.13 0.00 87 1039.6
20260507080023 10 312 4.8 9.7 0.00 0.13 0.00 86 1039.5
20260507075023 10 260 3.2 8.0 0.00 0.13 0.00 85 1039.5
20260507074022 10 242 4.8 9.7 0.00 0.13 0.00 84 1039.6
20260507073025 10 19 4.8 12.9 0.00 0.13 0.00 83 1039.3
20260507072024 10 292 4.8 9.7 0.00 0.13 0.00 83 1039.3
20260507071024 10 246 4.8 12.9 0.00 0.13 0.00 84 1039.1
20260507070024 10 261 4.8 12.9 0.00 0.13 0.00 83 1039.1
20260507065023 10 338 4.8 14.5 0.00 0.13 0.00 83 1039.1
20260507064023 10 189 4.8 12.9 0.00 0.13 0.00 82 1039.0
20260507063023 10 317 4.8 11.3 0.00 0.13 0.00 82 1038.7
20260507062023 10 318 4.8 11.3 0.00 0.13 0.00 83 1038.9
20260507061023 10 292 4.8 9.7 0.00 0.13 0.00 83 1038.7
20260507060023 10 284 4.8 12.9 0.00 0.13 0.00 83 1038.7
20260507055023 10 292 4.8 9.7 0.00 0.13 0.00 84 1038.6
20260507054022 10 186 4.8 9.7 0.00 0.13 0.00 84 1038.5
20260507053024 10 317 3.2 9.7 0.00 0.13 0.00 84 1038.4
20260507052023 10 176 3.2 9.7 0.00 0.13 0.00 84 1038.3
20260507051023 9 263 4.8 11.3 0.00 0.13 0.00 84 1038.3
20260507050023 10 256 3.2 6.4 0.00 0.13 0.00 85 1038.3
20260507045023 9 285 3.2 12.9 0.00 0.13 0.00 86 1037.8
20260507044023 8 272 1.6 4.8 0.00 0.13 0.00 86 1037.9
20260507043024 8 286 1.6 6.4 0.00 0.13 0.00 85 1037.9
20260507042023 8 339 3.2 9.7 0.00 0.13 0.00 84 1037.7
20260507041022 8 149 3.2 11.3 0.00 0.13 0.00 84 1037.5
20260507040023 8 281 3.2 6.4 0.00 0.13 0.00 84 1037.6
20260507035023 8 269 1.6 6.4 0.00 0.13 0.00 84 1037.4
20260507034024 8 241 1.6 6.4 0.00 0.13 0.00 84 1037.5
20260507033024 8 282 3.2 8.0 0.00 0.13 0.00 85 1037.2
20260507032024 8 279 3.2 12.9 0.00 0.13 0.00 87 1037.3
20260507031023 8 282 3.2 6.4 0.00 0.13 0.00 88 1037.4
20260507030024 8 295 1.6 6.4 0.00 0.13 0.00 88 1037.3
20260507025023 8 318 3.2 6.4 0.00 0.13 0.00 88 1037.4
20260507024023 8 271 3.2 6.4 0.00 0.13 0.00 88 1037.1
20260507023023 8 325 3.2 9.7 0.00 0.13 0.00 88 1037.1
20260507022023 8 304 3.2 6.4 0.00 0.13 0.00 87 1037.3
20260507021023 8 347 3.2 9.7 0.00 0.13 0.00 87 1037.3
20260507020024 8 317 4.8 12.9 0.00 0.13 0.00 87 1037.1
20260507015024 8 318 6.4 12.9 0.00 0.13 0.00 88 1037.0
20260507014023 8 323 8.0 17.7 0.00 0.13 0.00 88 1036.9
20260507013024 8 345 8.0 16.1 0.00 0.13 0.00 88 1037.0
20260507012024 8 337 6.4 16.1 0.00 0.13 0.00 88 1037.1
20260507011023 8 338 6.4 12.9 0.00 0.13 0.00 89 1037.1
20260507010024 8 316 4.8 11.3 0.00 0.13 0.00 89 1036.8
20260507005024 8 303 3.2 8.0 0.00 0.13 0.00 89 1036.6
20260507004024 8 237 3.2 8.0 0.00 0.13 0.00 89 1036.8
20260507003024 8 246 3.2 9.7 0.00 0.13 0.00 89 1036.9
20260507002024 8 255 1.6 6.4 0.00 0.13 0.00 89 1036.8
20260507001024 8 222 1.6 3.2 0.00 0.13 0.00 89 1036.7
20260507000024 8 283 3.2 8.0 0.00 0.13 0.00 89 1036.9
20260506235024 8 319 4.8 9.7 0.00 0.13 0.00 89 1037.0
20260506234024 8 337 3.2 8.0 0.00 0.13 0.00 89 1036.9
20260506233024 8 317 3.2 8.0 0.00 0.13 0.00 89 1037.1
20260506232023 8 317 4.8 6.4 0.00 0.13 0.00 88 1037.0
20260506231024 9 328 3.2 8.0 0.00 0.13 0.00 88 1036.8
20260506230024 9 347 3.2 9.7 0.00 0.13 0.00 89 1036.8
20260506225024 9 357 3.2 8.0 0.00 0.13 0.00 89 1037.0
20260506224024 9 310 3.2 6.4 0.00 0.13 0.00 89 1036.8
20260506223024 9 310 1.6 4.8 0.00 0.13 0.00 89 1036.8
20260506222024 9 308 3.2 8.0 0.00 0.13 0.00 89 1037.0
20260506221023 9 354 3.2 6.4 0.00 0.13 0.00 88 1036.6
20260506220028 9 310 4.8 12.9 0.00 0.13 0.00 88 1036.6
20260506215024 9 287 4.8 16.1 0.00 0.13 0.13 88 1036.6
20260506214023 9 305 4.8 11.3 0.00 0.13 0.13 88 1036.2
20260506213025 9 292 3.2 8.0 0.00 0.13 0.13 88 1036.3
20260506212024 9 292 4.8 11.3 0.00 0.13 0.13 88 1036.3
20260506211024 9 308 4.8 12.9 0.00 0.13 0.13 88 1036.4
20260506210024 9 301 6.4 12.9 0.00 0.13 0.13 89 1036.2
20260506205023 9 165 1.6 8.0 0.00 0.13 0.13 89 1036.2
20260506204023 9 312 3.2 8.0 0.00 0.13 0.13 88 1035.9
20260506203025 9 259 3.2 6.4 0.00 0.15 0.13 89 1036.1
20260506202023 9 287 1.6 6.4 0.00 0.15 0.13 88 1036.2
20260506201023 9 1 1.6 6.4 0.00 0.18 0.13 88 1035.9
20260506200024 9 279 3.2 9.7 0.00 0.18 0.13 87 1036.2
20260506195023 10 306 4.8 12.9 0.00 0.18 0.13 87 1035.9
20260506194024 10 295 4.8 9.7 0.00 0.18 0.13 87 1036.0
20260506193024 10 315 3.2 8.0 0.00 0.18 0.13 87 1035.9
20260506192023 10 262 3.2 9.7 0.00 0.18 0.13 86 1036.0
20260506191023 10 296 4.8 12.9 0.00 0.18 0.13 85 1035.5
20260506190024 10 288 3.2 6.4 0.00 0.18 0.13 85 1035.6
20260506185023 10 255 3.2 9.7 0.00 0.18 0.13 84 1035.3
20260506184023 10 262 3.2 9.7 0.00 0.18 0.13 84 1035.4
20260506183024 10 282 4.8 9.7 0.00 0.18 0.13 84 1035.2
20260506182023 10 279 4.8 11.3 0.00 0.18 0.13 84 1035.0
20260506181024 10 329 6.4 19.3 0.00 0.18 0.13 84 1035.0
20260506180024 10 209 4.8 12.9 0.00 0.18 0.13 84 1034.8
20260506175029 10 320 4.8 17.7 0.00 0.18 0.13 84 1034.7
20260506174024 10 301 3.2 6.4 0.00 0.18 0.13 83 1034.6
20260506173024 10 188 4.8 12.9 0.00 0.18 0.13 83 1034.4
20260506172023 10 262 4.8 14.5 0.00 0.18 0.13 84 1034.2
20260506171023 10 285 3.2 6.4 0.00 0.18 0.13 84 1034.1
20260506170024 10 288 4.8 11.3 0.00 0.18 0.13 84 1033.8
20260506165023 11 280 4.8 12.9 0.00 0.18 0.13 83 1033.9
20260506164023 11 286 6.4 16.1 0.00 0.18 0.13 83 1034.1
20260506163023 11 193 8.0 17.7 0.00 0.18 0.13 84 1034.1
20260506162023 11 243 11.3 24.1 0.13 0.18 0.13 84 1033.9
20260506161023 11 353 12.9 19.3 0.13 0.18 0.13 85 1033.9
20260506160024 11 254 6.4 19.3 0.13 0.18 0.13 88 1033.9
20260506155023 11 275 9.7 17.7 0.13 0.18 0.13 88 1033.8
20260506154023 11 213 8.0 17.7 0.13 0.18 0.13 88 1033.8
20260506153024 12 302 6.4 14.5 0.13 0.18 0.13 81 1033.6
20260506152022 13 333 14.5 37.0 0.00 0.05 0.00 68 1033.3
20260506151022 17 293 4.8 11.3 0.00 0.05 0.00 62 1032.3
20260506150023 18 303 3.2 6.4 0.00 0.05 0.00 55 1031.7
20260506145023 17 328 4.8 8.0 0.00 0.05 0.00 60 1031.5
20260506144023 17 356 4.8 8.0 0.00 0.05 0.00 60 1031.5
20260506143023 16 351 6.4 12.9 0.00 0.05 0.00 69 1031.5
20260506142023 16 347 4.8 12.9 0.00 0.05 0.00 71 1031.6
20260506141023 15 290 4.8 12.9 0.00 0.05 0.00 70 1031.5
20260506140023 16 339 3.2 9.7 0.00 0.05 0.00 70 1032.3
20260506135023 16 338 4.8 8.0 0.00 0.05 0.00 66 1032.1
20260506134023 17 340 4.8 8.0 0.00 0.05 0.00 64 1032.1
20260506133023 17 302 3.2 9.7 0.00 0.05 0.00 60 1031.9
20260506132022 17 334 3.2 6.4 0.00 0.05 0.00 53 1032.3